Location: Unspecified
(0.0000°N, 0.0000°E)
Time: 16:20:49
(UTC+00:00)

A-11 Canister half - Pass Details

Date: 22 November 2019
Orbit: 1526 x 1683 km, 47.3° (Epoch: 12 December)

Event Time Altitude Azimuth Distance (km) Brightness Sun altitude
Rises 17:55:13 0° 345° (NNW) 4,721 11.5 -2.1°
Reaches altitude 10° 17:59:14 10° 359° (N) 3,718 10.8 -3.1°
Maximum altitude 18:06:08 23° 48° (NE) 2,819 9.9 -4.7°
Drops below altitude 10° 18:12:57 10° 96° (E) 3,688 10.5 -6.3°
Sets 18:16:51 0° 110° (ESE) 4,673 11.1 -7.2°
